Regional Weather Roundup
Issued by NWS

Home | Current Version | Previous Version | Text Only | Print | Product List | Glossary Off
Versions: 1 2 3 4 5 6 7 8 9 10 11 12 13 14 15 16 17 18 19 20 21 22 23 24 25 26 27 28 29 30 31 32 33 34 35 36 37 38 39 40 41 42 43 44 45 46 47 48 49 50

000
ASUS43 KLMK 191610
RWRKY
KENTUCKY REGIONAL WEATHER ROUNDUP
NATIONAL WEATHER SERVICE LOUISVILLE KY
1200 PM EDT THU OCT 19 2017

NOTE "FAIR" INDICATES FEW OR NO CLOUDS BELOW 12,000 FEET
WITH NO SIGNIFICANT WEATHER AND/OR OBSTRUCTIONS TO VISIBILITY.

KYZ001>023-026-027-061>063-070>075-191700-
WESTERN AND SOUTH CENTRAL KENTUCKY

CITY           SKY/WX    TMP DP  RH WIND       PRES   REMARKS
PADUCAH        SUNNY     69  48  47 SW9       30.27R
HENDERSON      SUNNY     68  51  54 SW12      30.25F
OWENSBORO      SUNNY     67  50  54 SW12      30.27S
HOPKINSVILLE   SUNNY     68  49  50 S8        30.29F
BOWLING GREEN  SUNNY     67  50  54 SW10      30.31F
GLASGOW        SUNNY     65  48  54 SW7       30.32S
$$

KYZ024-025-028>034-038-045-046-053-191700-
NORTH CENTRAL KENTUCKY

CITY           SKY/WX    TMP DP  RH WIND       PRES   REMARKS
LOUISVILLE/SDF MOSUNNY   66  48  52 SW10      30.28
LOUISVILLE/LOU SUNNY     66  50  56 S12       30.29S
FORT KNOX      SUNNY     67  48  50 SW10      30.27F
$$

KYZ035>037-039>044-047>052-055>060-089>105-191700-
NORTHEAST KENTUCKY

CITY           SKY/WX    TMP DP  RH WIND       PRES   REMARKS
LEXINGTON      SUNNY     65  49  56 SW8       30.31S
COVINGTON      MOSUNNY   63  50  62 SW10      30.26S
FRANKFORT      SUNNY     66  48  52 SW12      30.29S
$$

KYZ054-064>069-076>088-106>120-191700-
SOUTHEAST KENTUCKY

CITY           SKY/WX    TMP DP  RH WIND       PRES   REMARKS
JACKSON        SUNNY     62  48  60 VRB7      30.34S
LONDON         SUNNY     63  44  50 SW7       30.35S
SOMERSET       SUNNY     63  46  55 S5        30.35S
MIDDLESBORO    SUNNY     62  49  63 CALM      30.36F
MONTICELLO     SUNNY     66  46  48 W16       30.36S
$$





USA.gov is the U.S. government's official web portal to all federal, state and local government web resources and services.